GW2905 Weather Reports


time (UTC)temp
C
wind
direction
speed
KPH
gust
KPH
rain 1hr
cm
rain 24hr
cm
rain mn
cm
humidity
%
barometer
mb
20260507080050 10 0 0.0 0.0 0.00 0.00 0.00 87 1020.9
20260507074550 10 0 0.0 0.0 0.00 0.00 0.00 86 1020.9
20260507073055 10 0 0.0 0.0 0.00 0.00 0.00 86 1021.0
20260507071556 10 0 0.0 0.0 0.00 0.00 0.00 86 1020.8
20260507070058 10 0 0.0 0.0 0.00 0.00 0.00 84 1020.6
20260507064551 11 0 0.0 1.6 0.00 0.00 0.00 82 1020.6
20260507063052 11 0 0.0 3.2 0.00 0.00 0.00 82 1020.7
20260507061550 11 0 0.0 9.7 0.00 0.00 0.00 83 1020.7
20260507060058 11 42 0.0 4.8 0.00 0.00 0.00 83 1020.8
20260507054601 11 35 0.0 11.3 0.00 0.00 0.00 84 1020.7
20260507053057 11 0 0.0 3.2 0.00 0.00 0.00 85 1020.5
20260507051551 11 14 0.0 4.8 0.00 0.00 0.00 84 1020.5
20260507050056 11 44 0.0 8.0 0.00 0.00 0.00 84 1020.6
20260507044601 12 0 0.0 4.8 0.00 0.00 0.00 83 1020.6
20260507043051 12 0 0.0 8.0 0.00 0.00 0.00 83 1020.5
20260507041551 12 0 0.0 4.8 0.00 0.00 0.00 83 1020.4
20260507040054 12 0 0.0 6.4 0.00 0.00 0.00 83 1020.3
20260507034556 12 42 0.0 11.3 0.00 0.00 0.00 82 1020.2
20260507033054 12 5 1.6 9.7 0.00 0.00 0.00 82 1020.0
20260507031551 12 325 0.0 8.0 0.00 0.00 0.00 82 1019.7
20260507030101 13 0 0.0 11.3 0.00 0.00 0.00 82 1019.7
20260507024558 13 238 1.6 12.9 0.00 0.00 0.00 81 1019.5
20260507023053 13 42 1.6 9.7 0.00 0.00 0.00 81 1019.5
20260507021551 13 352 0.0 4.8 0.00 0.00 0.00 81 1019.5
20260507020052 13 360 1.6 6.4 0.00 0.00 0.00 80 1019.4
20260507014556 14 37 1.6 4.8 0.00 0.00 0.00 79 1019.5
20260507013059 15 348 1.6 11.3 0.00 0.00 0.00 78 1019.7
20260507011556 15 271 1.6 9.7 0.00 0.00 0.00 76 1019.9
20260507010054 15 311 1.6 8.0 0.00 0.00 0.00 76 1019.8
20260507004556 16 32 3.2 12.9 0.00 0.00 0.00 75 1019.7
20260507003055 16 42 1.6 11.3 0.00 0.00 0.00 75 1019.7
20260507001554 16 96 1.6 9.7 0.00 0.00 0.00 74 1019.4
20260507000056 17 40 1.6 12.9 0.00 0.00 0.00 76 1019.5
20260506234555 17 0 0.0 4.8 0.00 0.00 0.00 74 1019.5
20260506233056 17 242 1.6 6.4 0.00 0.00 0.00 75 1019.4
20260506231558 17 37 0.0 9.7 0.00 0.00 0.00 76 1019.6
20260506230056 17 0 0.0 4.8 0.00 0.00 0.00 77 1019.6
20260506224603 17 0 0.0 3.2 0.00 0.00 0.00 76 1019.7
20260506223049 18 9 1.6 6.4 0.00 0.00 0.00 69 1019.8
20260506221553 17 79 1.6 6.4 0.00 0.00 0.00 76 1020.0
20260506220052 17 297 1.6 4.8 0.00 0.00 0.00 74 1020.0
20260506214607 16 67 0.0 4.8 0.00 0.00 0.00 76 1020.0
20260506213054 17 0 0.0 8.0 0.00 0.00 0.00 74 1020.0
20260506211556 17 15 1.6 6.4 0.00 0.00 0.00 79 1020.1
20260506210055 16 125 0.0 6.4 0.00 0.00 0.00 74 1020.3
20260506204615 16 115 1.6 4.8 0.00 0.00 0.00 74 1020.3
20260506203052 16 173 1.6 4.8 0.00 0.00 0.00 77 1020.3
20260506201552 15 311 1.6 8.0 0.00 0.00 0.00 78 1020.2
20260506200051 16 157 1.6 6.4 0.00 0.00 0.00 78 1020.2
20260506194604 16 171 0.0 4.8 0.00 0.00 0.00 82 1020.3
20260506193057 14 279 0.0 3.2 0.00 0.00 0.00 85 1020.5
20260506191553 14 82 0.0 3.2 0.00 0.00 0.00 84 1020.5
20260506190052 13 0 0.0 3.2 0.00 0.00 0.00 85 1020.4
20260506184556 13 0 1.6 6.4 0.00 0.00 0.00 85 1020.3
20260506183100 13 0 0.0 4.8 0.00 0.00 0.00 86 1020.3
20260506181551 13 120 1.6 4.8 0.00 0.00 0.00 87 1020.2
20260506180055 13 0 0.0 3.2 0.00 0.00 0.00 87 1020.2
20260506174553 13 133 0.0 4.8 0.00 0.00 0.00 88 1020.2
20260506173051 12 115 0.0 4.8 0.00 0.00 0.00 88 1020.1
20260506171559 12 130 0.0 3.2 0.00 0.00 0.00 88 1020.1
20260506164558 12 0 0.0 1.6 0.00 0.00 0.00 89 1020.0
20260506163103 12 0 0.0 3.2 0.00 0.00 0.00 88 1020.0
20260506161604 12 0 0.0 3.2 0.00 0.00 0.00 88 1020.1
20260506160053 12 0 0.0 3.2 0.00 0.00 0.00 89 1019.6
20260506154610 12 182 0.0 3.2 0.00 0.00 0.00 90 1019.4
20260506153051 12 126 0.0 3.2 0.00 0.00 0.00 90 1019.2
20260506151555 11 0 0.0 1.6 0.00 0.00 0.00 91 1019.7
20260506150056 11 57 0.0 1.6 0.00 0.00 0.00 91 1019.9
20260506144600 11 0 0.0 3.2 0.00 0.03 0.00 91 1019.9
20260506143055 11 0 0.0 1.6 0.00 0.03 0.00 91 1019.6
20260506141550 11 0 0.0 4.8 0.00 0.03 0.00 91 1019.4
20260506140058 11 0 0.0 3.2 0.00 0.03 0.00 91 1019.1
20260506134552 11 0 0.0 4.8 0.00 0.03 0.00 91 1019.0
20260506133103 11 0 0.0 1.6 0.00 0.03 0.00 91 1018.9
20260506131556 11 0 0.0 3.2 0.00 0.03 0.00 91 1018.8
20260506130053 11 0 0.0 1.6 0.00 0.03 0.00 91 1018.6
20260506124554 12 101 0.0 1.6 0.00 0.03 0.00 91 1018.5
20260506123054 11 0 0.0 1.6 0.00 0.03 0.00 91 1018.3
20260506121553 11 0 0.0 1.6 0.00 0.03 0.00 92 1018.5
20260506120052 11 0 0.0 1.6 0.00 0.03 0.00 91 1018.5
20260506114558 11 0 0.0 1.6 0.00 0.03 0.00 92 1018.3
20260506113053 11 0 0.0 1.6 0.00 0.03 0.00 91 1018.1
20260506111552 11 0 0.0 1.6 0.00 0.03 0.00 90 1017.9
20260506110053 11 0 0.0 1.6 0.00 0.03 0.00 90 1017.7
20260506104556 12 0 0.0 1.6 0.00 0.03 0.00 90 1017.6
20260506103058 12 0 0.0 1.6 0.00 0.03 0.00 89 1017.5
20260506101552 12 0 0.0 3.2 0.00 0.03 0.00 90 1017.3
20260506100051 12 0 0.0 1.6 0.00 0.03 0.00 90 1017.2
20260506094551 12 0 0.0 6.4 0.00 0.03 0.00 89 1017.1
20260506093051 12 0 0.0 4.8 0.00 0.03 0.00 89 1017.0
20260506091554 12 0 0.0 3.2 0.00 0.03 0.00 89 1017.1
20260506090050 12 320 0.0 4.8 0.00 0.03 0.00 88 1016.9
20260506084553 12 0 0.0 1.6 0.00 0.03 0.00 88 1016.8
20260506083052 12 0 0.0 3.2 0.00 0.03 0.00 87 1016.9
20260506081552 12 0 0.0 0.0 0.00 0.03 0.00 87 1016.9